Julian (221, 222, JU1, MAN1, OK1, SL1) Station Data

Red Flag Warning: Yes
Fire Weather Zone: 258
SDGE Region: Ramona
Lat/Lon: 33.076/-116.591

Observations

Time Wind Speed/Gust Temp(F) RH Fuel Moist Fuel Temp(F) Dewpt(F) Tmax(F) Tmin(F) Accum Precip 10-min Precip SL Press(mb)
6/27 5:00pm 263 13 G 21 81° 13% - - 25° 85.2° 68.9° - - -
6/27 4:50pm 265 15 G 25 81° 12% - - 24° 85.2° 68.9° - - -
6/27 4:40pm 262 15 G 28 82° 13% - - 25° 85.2° 68.9° - - -
6/27 4:30pm 261 13 G 27 82° 12% - - 25° 85.2° 68.9° - - -
6/27 4:20pm 264 14 G 27 82° 12% - - 25° 85.2° 68.9° - - -
6/27 4:10pm 264 13 G 22 83° 12% - - 25° 85.2° 68.9° - - -
6/27 4:00pm 263 13 G 23 83° 12% - - 25° 85.2° 68.9° - - -
6/27 3:50pm 266 15 G 25 83° 12% - - 25° 85.2° 68.9° - - -
6/27 3:40pm 262 13 G 21 83° 12% - - 26° 85.2° 68.9° - - -
6/27 3:30pm 258 12 G 27 83° 13% - - 27° 85.2° 68.9° - - -
6/27 3:20pm 265 14 G 27 83° 12% - - 26° 85.2° 68.9° - - -
6/27 3:10pm 269 16 G 25 83° 12% - - 26° 85.2° 68.9° - - -
6/27 3:00pm 261 14 G 26 84° 12% - - 26° 85.2° 68.9° - - -
6/27 2:50pm 263 13 G 25 84° 12% - - 26° 85.2° 68.9° - - -
6/27 2:40pm 264 13 G 26 84° 11% - - 25° 85.2° 68.9° - - -
6/27 2:30pm 263 14 G 23 84° 11% - - 24° 85.2° 68.9° - - -
6/27 2:20pm 262 13 G 23 85° 11% - - 24° 85.2° 68.9° - - -
6/27 2:10pm 270 14 G 22 84° 10% - - 22° 85.2° 68.9° - - -
6/27 2:00pm 267 15 G 24 84° 11% - - 23° 85.2° 68.9° - - -
6/27 1:50pm 271 15 G 22 84° 10% - - 22° 85.2° 68.9° - - -
6/27 1:40pm 275 15 G 23 84° 10% - - 21° 85.2° 68.9° - - -
6/27 1:30pm 267 13 G 23 84° 9% - - 20° 85.2° 68.9° - - -
6/27 1:20pm 261 12 G 20 85° 9% - - 20° 85.2° 68.9° - - -
6/27 1:10pm 272 14 G 27 84° 9% - - 20° 84.6° 68.9° - - -
6/27 1:00pm 270 15 G 24 84° 9% - - 19° 84.3° 68.9° - - -
6/27 12:50pm 272 14 G 21 84° 9% - - 20° 84.3° 68.9° - - -
6/27 12:40pm 272 15 G 22 83° 9% - - 20° 84° 68.9° - - -
6/27 12:30pm 273 16 G 24 83° 10% - - 20° 83.8° 68.9° - - -
6/27 12:20pm 259 13 G 24 83° 10% - - 21° 83.6° 68.9° - - -
6/27 12:10pm 261 14 G 22 83° 10% - - 21° 83.6° 68.9° - - -
6/27 12:00pm 261 12 G 29 83° 10% - - 21° 83.3° 68.9° - - -
6/27 11:50am 258 13 G 24 82° 10% - - 21° 83° 68.9° - - -
6/27 11:40am 259 12 G 22 83° 10% - - 21° 83° 68.9° - - -
6/27 11:30am 258 12 G 22 82° 11% - - 22° 82.6° 68.9° - - -
6/27 11:20am 261 13 G 23 81° 11% - - 22° 81.9° 68.9° - - -
6/27 11:10am 262 12 G 23 81° 11% - - 21° 81.9° 68.9° - - -
6/27 11:00am 264 12 G 19 81° 11% - - 22° 81.9° 68.9° - - -
6/27 10:50am 264 12 G 23 81° 11% - - 21° 81.6° 68.9° - - -
6/27 10:40am 270 12 G 19 81° 11% - - 22° 81.6° 68.9° - - -
6/27 10:30am 261 11 G 19 81° 11% - - 22° 81.5° 68.9° - - -
6/27 10:20am 264 12 G 20 80° 11% - - 22° 80.7° 68.9° - - -
6/27 10:10am 266 11 G 19 80° 12% - - 23° 80.7° 68.9° - - -
6/27 10:00am 269 11 G 18 80° 12% - - 22° 80° 68.9° - - -
6/27 9:50am 266 11 G 17 79° 12% - - 22° 79.7° 68.9° - - -
6/27 9:40am 265 9 G 18 79° 12% - - 22° 79.5° 68.9° - - -
6/27 9:30am 270 9 G 16 79° 12% - - 22° 79.2° 68.9° - - -
6/27 9:20am 267 11 G 18 78° 12% - - 21° 78.6° 68.9° - - -
6/27 9:10am 269 9 G 16 78° 12% - - 22° 78.6° 68.9° - - -
6/27 8:50am 267 10 G 19 77° 12% - - 21° 78° 68.9° - - -
6/27 8:40am 270 10 G 16 77° 13% - - 22° 77.1° 68.9° - - -
6/27 8:30am 270 11 G 16 76° 12% - - 21° 76.6° 68.9° - - -
6/27 8:20am 272 10 G 14 76° 13% - - 21° 76.3° 68.9° - - -
6/27 8:10am 271 9 G 15 75° 14% - - 23° 75.7° 68.9° - - -
6/27 8:00am 269 8 G 14 75° 15% - - 23° 75.3° 68.9° - - -
6/27 7:50am 267 6 G 11 75° 15% - - 24° 74.9° 68.9° - - -
6/27 7:40am 265 8 G 13 74° 14% - - 22° 74.8° 68.9° - - -
6/27 7:30am 267 7 G 11 73° 14% - - 22° 74.8° 68.9° - - -
6/27 7:20am 268 7 G 13 73° 14% - - 20° 74.8° 68.9° - - -
6/27 7:10am 268 6 G 11 73° 13% - - 20° 74.8° 68.9° - - -
6/27 7:00am 266 6 G 11 72° 14% - - 19° 74.8° 68.9° - - -
6/27 6:50am 267 6 G 12 71° 13% - - 19° 74.8° 68.9° - - -
6/27 6:40am 269 6 G 10 71° 13% - - 18° 74.8° 68.9° - - -
6/27 6:30am 264 6 G 11 70° 13% - - 17° 74.8° 68.9° - - -
6/27 6:20am 269 6 G 10 70° 13% - - 17° 74.8° 68.9° - - -
6/27 6:10am 270 7 G 11 69° 13% - - 17° 74.8° 68.9° - - -
6/27 6:00am 265 6 G 13 70° 13% - - 17° 74.8° 69.5° - - -
6/27 5:50am 252 6 G 13 70° 13% - - 16° 74.8° 69.5° - - -
6/27 5:40am 257 6 G 12 70° 13% - - 17° 74.8° 69.5° - - -
6/27 5:30am 255 6 G 11 70° 13% - - 17° 74.8° 69.5° - - -
6/27 5:20am 256 6 G 11 70° 13% - - 17° 74.8° 69.7° - - -
6/27 5:10am 257 7 G 17 70° 13% - - 17° 74.8° 69.7° - - -
6/27 5:00am 255 6 G 13 70° 13% - - 17° 74.8° 69.7° - - -
6/27 4:50am 256 7 G 14 70° 13% - - 18° 74.8° 69.9° - - -
6/27 4:40am 256 8 G 14 70° 13% - - 18° 74.8° 70° - - -
6/27 4:30am 259 7 G 13 70° 13% - - 18° 74.8° 70.3° - - -
6/27 4:20am 255 7 G 16 71° 13% - - 18° 74.8° 70.3° - - -
6/27 4:10am 258 8 G 15 71° 13% - - 18° 74.8° 70.6° - - -
6/27 4:00am 258 9 G 17 71° 13% - - 18° 74.8° 70.6° - - -
6/27 3:50am 259 8 G 15 71° 13% - - 18° 74.8° 70.7° - - -
6/27 3:40am 260 8 G 16 71° 13% - - 18° 74.8° 70.7° - - -
6/27 3:30am 263 9 G 18 71° 13% - - 18° 74.8° 71° - - -
6/27 3:20am 262 9 G 17 72° 13% - - 18° 74.8° 71.3° - - -
6/27 3:10am 261 9 G 16 72° 13% - - 18° 74.8° 71.5° - - -
6/27 3:00am 258 9 G 18 72° 13% - - 18° 74.8° 71.8° - - -
6/27 2:50am 258 9 G 18 72° 13% - - 18° 74.8° 71.8° - - -
6/27 2:40am 257 10 G 20 72° 13% - - 18° 74.8° 72° - - -
6/27 2:30am 257 10 G 21 72° 13% - - 18° 74.8° 72° - - -
6/27 2:20am 254 10 G 20 72° 13% - - 18° 74.8° 72.1° - - -
6/27 2:10am 251 10 G 20 72° 13% - - 18° 74.8° 72.1° - - -
6/27 2:00am 254 9 G 20 73° 12% - - 18° 74.8° 72.3° - - -
6/27 1:50am 255 9 G 19 73° 12% - - 18° 74.8° 72.4° - - -
6/27 1:40am 253 9 G 17 73° 12% - - 18° 74.8° 72.4° - - -
6/27 1:30am 253 10 G 21 73° 12% - - 18° 74.8° 72.4° - - -
6/27 1:20am 253 10 G 21 73° 12% - - 17° 74.8° 72.4° - - -
6/27 1:10am 254 9 G 17 73° 12% - - 17° 74.8° 72.4° - - -
6/27 1:00am 251 8 G 17 73° 12% - - 17° 74.8° 72.4° - - -
6/27 12:50am 252 8 G 16 73° 12% - - 17° 74.8° 72.4° - - -
6/27 12:40am 260 9 G 18 74° 11% - - 16° 74.8° 73.3° - - -
6/27 12:30am 263 10 G 18 74° 11% - - 16° 74.8° 73.7° - - -
6/27 12:20am 263 10 G 16 74° 11% - - 16° 74.8° 73.9° - - -
6/27 12:10am 266 11 G 20 74° 11% - - 16° 74.8° 74.1° - - -
6/27 12:00am 270 14 G 22 75° 11% - - 16° 90.7° 73° - - -
6/26 11:50pm 268 14 G 21 75° 11% - - 17° 90.7° 73° - - -
6/26 11:40pm 268 14 G 20 74° 12% - - 18° 90.7° 73° - - -
6/26 11:30pm 266 13 G 20 74° 12% - - 19° 90.7° 73° - - -
6/26 11:20pm 261 12 G 24 75° 12% - - 19° 90.7° 73° - - -
6/26 11:10pm 259 12 G 21 75° 12% - - 19° 90.7° 73° - - -
6/26 11:00pm 261 11 G 17 75° 12% - - 19° 90.7° 73° - - -
6/26 10:50pm 260 11 G 19 75° 12% - - 19° 90.7° 73° - - -
6/26 10:40pm 262 10 G 16 75° 12% - - 19° 90.7° 73° - - -
6/26 10:30pm 258 9 G 16 75° 12% - - 19° 90.7° 73° - - -
6/26 10:20pm 255 8 G 19 74° 12% - - 19° 90.7° 73° - - -
6/26 10:10pm 246 7 G 13 74° 13% - - 19° 90.7° 73° - - -
6/26 10:00pm 240 7 G 14 74° 13% - - 19° 90.7° 73° - - -
6/26 9:50pm 243 6 G 13 74° 13% - - 19° 90.7° 73° - - -
6/26 9:40pm 241 7 G 15 74° 13% - - 19° 90.7° 73° - - -
6/26 9:30pm 239 6 G 12 74° 13% - - 19° 90.7° 73° - - -
6/26 9:20pm 240 6 G 12 73° 13% - - 20° 90.7° 73° - - -
6/26 9:10pm 243 5 G 9 73° 13% - - 20° 90.7° 73° - - -
6/26 9:00pm 242 4 G 9 73° 14% - - 21° 90.7° 73° - - -
6/26 8:50pm 246 4 G 7 73° 14% - - 21° 90.7° 73° - - -
6/26 8:40pm 267 3 G 6 74° 13% - - 20° 90.7° 73.9° - - -
6/26 8:30pm 258 4 G 7 75° 13% - - 20° 90.7° 74.7° - - -
6/26 8:20pm 260 4 G 8 76° 13% - - 22° 90.7° 75.1° - - -
6/26 8:10pm 258 5 G 10 77° 13% - - 23° 90.7° 76° - - -
6/26 8:00pm 259 5 G 10 77° 14% - - 24° 90.7° 76.4° - - -
6/26 7:50pm 261 5 G 12 78° 14% - - 24° 90.7° 76.4° - - -
6/26 7:40pm 264 6 G 15 79° 13% - - 25° 90.7° 76.4° - - -
6/26 7:30pm 259 6 G 14 80° 13% - - 24° 90.7° 76.4° - - -
6/26 7:20pm 257 7 G 15 81° 12% - - 23° 90.7° 76.4° - - -
6/26 7:10pm 254 7 G 17 82° 11% - - 22° 90.7° 76.4° - - -
6/26 7:00pm 252 8 G 16 83° 10% - - 20° 90.7° 76.4° - - -
6/26 6:50pm 254 8 G 16 83° 9% - - 19° 90.7° 76.4° - - -
6/26 6:40pm 255 8 G 21 84° 9% - - 19° 90.7° 76.4° - - -
6/26 6:30pm 259 10 G 18 84° 8% - - 18° 90.7° 76.4° - - -
6/26 6:20pm 258 9 G 17 85° 8% - - 18° 90.7° 76.4° - - -
6/26 6:10pm 261 9 G 16 85° 9% - - 21° 90.7° 76.4° - - -
6/26 6:00pm 258 10 G 18 86° 9% - - 21° 90.7° 76.4° - - -
6/26 5:50pm 258 9 G 17 86° 10% - - 22° 90.7° 76.4° - - -
6/26 5:40pm 266 10 G 18 86° 10% - - 23° 90.7° 76.4° - - -
6/26 5:30pm 260 9 G 17 87° 10% - - 23° 90.7° 76.4° - - -
6/26 5:20pm 268 10 G 16 87° 10% - - 23° 90.7° 76.4° - - -
6/26 5:10pm 272 10 G 20 87° 10% - - 23° 90.7° 76.4° - - -
6/26 5:00pm 273 11 G 21 87° 10% - - 23° 90.7° 76.4° - - -
6/26 4:50pm 268 10 G 19 87° 10% - - 24° 90.7° 76.4° - - -
6/26 4:40pm 268 12 G 20 87° 9% - - 23° 90.7° 76.4° - - -
6/26 4:30pm 272 12 G 21 88° 10% - - 24° 90.7° 76.4° - - -
6/26 4:20pm 271 10 G 17 88° 10% - - 24° 90.7° 76.4° - - -
6/26 4:10pm 270 11 G 17 88° 10% - - 25° 90.7° 76.4° - - -
6/26 4:00pm 274 11 G 22 88° 10% - - 25° 90.7° 76.4° - - -
6/26 3:50pm 279 11 G 21 88° 10% - - 26° 90.7° 76.4° - - -
6/26 3:40pm 277 11 G 21 88° 11% - - 28° 90.7° 76.4° - - -
6/26 3:30pm 276 11 G 18 89° 11% - - 28° 90.7° 76.4° - - -
6/26 3:20pm 266 10 G 17 89° 12% - - 29° 90.7° 76.4° - - -
6/26 3:10pm 264 10 G 19 89° 12% - - 30° 90.7° 76.4° - - -
6/26 3:00pm 267 10 G 16 89° 13% - - 31° 90.7° 76.4° - - -
6/26 2:50pm 272 10 G 17 89° 13% - - 31° 90.7° 76.4° - - -
6/26 2:40pm 274 9 G 17 89° 13% - - 31° 90.7° 76.4° - - -
6/26 2:30pm 279 11 G 19 89° 13% - - 31° 90.7° 76.4° - - -
6/26 2:20pm 273 10 G 17 90° 13% - - 31° 90.7° 76.4° - - -
6/26 2:10pm 283 10 G 17 89° 13% - - 32° 90.7° 76.4° - - -
6/26 2:00pm 276 10 G 17 89° 13% - - 32° 90.7° 76.4° - - -
6/26 1:50pm 280 11 G 19 89° 12% - - 30° 90.7° 76.4° - - -
6/26 1:40pm 267 10 G 19 89° 12% - - 29° 90.7° 76.4° - - -
6/26 1:30pm 277 12 G 20 89° 11% - - 27° 90.7° 76.4° - - -
6/26 1:20pm 272 11 G 18 90° 10% - - 26° 90.7° 76.4° - - -
6/26 1:10pm 273 11 G 18 90° 10% - - 26° 90.7° 76.4° - - -
6/26 1:00pm 266 10 G 18 90° 10% - - 27° 90.7° 76.4° - - -
6/26 12:50pm 275 9 G 17 90° 11% - - 28° 90.7° 76.4° - - -
6/26 12:40pm 267 10 G 17 90° 10% - - 26° 90.7° 76.4° - - -
6/26 12:30pm 262 10 G 18 90° 10% - - 25° 90.7° 76.4° - - -
6/26 12:20pm 268 9 G 17 90° 10% - - 27° 90.5° 76.4° - - -
6/26 12:10pm 265 9 G 18 90° 10% - - 26° 90.5° 76.4° - - -
6/26 12:00pm 280 9 G 19 89° 11% - - 27° 89.8° 76.4° - - -
6/26 11:50am 270 10 G 17 89° 11% - - 27° 89.5° 76.4° - - -
6/26 11:40am 272 10 G 18 89° 11% - - 27° 89.5° 76.4° - - -
6/26 11:30am 282 10 G 18 89° 11% - - 27° 89.4° 76.4° - - -
6/26 11:20am 277 10 G 19 89° 11% - - 27° 89.2° 76.4° - - -
6/26 11:10am 271 10 G 15 89° 11% - - 27° 89° 76.4° - - -
6/26 11:00am 270 10 G 16 88° 11% - - 27° 88.9° 76.4° - - -
6/26 10:50am 277 9 G 15 88° 11% - - 28° 88.8° 76.4° - - -
6/26 10:40am 274 10 G 17 88° 11% - - 28° 88.5° 76.4° - - -
6/26 10:30am 280 10 G 17 88° 11% - - 27° 88.1° 76.4° - - -
6/26 10:20am 269 10 G 18 88° 11% - - 27° 88.1° 76.4° - - -
6/26 10:10am 273 9 G 14 88° 11% - - 27° 87.9° 76.4° - - -
6/26 10:00am 266 8 G 19 87° 11% - - 27° 87.8° 76.4° - - -
6/26 9:50am 266 8 G 14 87° 12% - - 28° 87.8° 76.4° - - -
6/26 9:40am 266 8 G 15 87° 12% - - 28° 87° 76.4° - - -
6/26 9:30am 265 7 G 11 86° 12% - - 29° 86.9° 76.4° - - -
6/26 9:20am 264 7 G 13 86° 12% - - 28° 86° 76.4° - - -
6/26 9:10am 264 7 G 12 86° 13% - - 28° 85.9° 76.4° - - -
6/26 9:00am 263 7 G 11 86° 13% - - 28° 85.7° 76.4° - - -
6/26 8:50am 261 6 G 11 85° 13% - - 29° 85.6° 76.4° - - -
6/26 8:40am 266 5 G 9 85° 13% - - 29° 85.6° 76.4° - - -
6/26 8:30am 270 5 G 9 85° 13% - - 29° 85.3° 76.4° - - -
6/26 8:20am 267 5 G 8 85° 13% - - 29° 84.9° 76.4° - - -
6/26 8:10am 268 4 G 8 84° 13% - - 28° 84.6° 76.4° - - -
6/26 8:00am 267 4 G 8 84° 13% - - 27° 84.3° 76.4° - - -
6/26 7:50am 272 4 G 7 83° 13% - - 27° 83.7° 76.4° - - -
6/26 7:40am 271 5 G 8 83° 12% - - 26° 83.3° 76.4° - - -
6/26 7:30am 268 5 G 9 82° 13% - - 26° 82.8° 76.4° - - -
6/26 7:20am 265 4 G 7 82° 13% - - 26° 82.4° 76.4° - - -
6/26 7:10am 263 5 G 8 82° 12% - - 26° 82.4° 76.4° - - -
6/26 7:00am 265 5 G 9 82° 12% - - 25° 82.2° 76.4° - - -
6/26 6:50am 263 5 G 10 82° 12% - - 25° 81.9° 76.4° - - -
6/26 6:40am 270 6 G 9 81° 12% - - 24° 81.6° 76.4° - - -
6/26 6:30am 269 6 G 10 81° 13% - - 25° 81.1° 76.4° - - -
6/26 6:20am 267 5 G 9 80° 13% - - 25° 80.6° 76.4° - - -
6/26 6:10am 269 5 G 8 80° 14% - - 26° 80° 76.4° - - -
6/26 6:00am 263 5 G 8 79° 14% - - 26° 80° 76.4° - - -